1357948827091,1.03303
1357948887091,1.03444
1357948947091,1.04400
1357949007091,1.04380
1357949067091,1.04183
1357949127091,1.04167
1357949187091,1.03715
1357949247091,1.04215
1357949307091,1.04190
1357949367091,1.04887
1357949427091,1.04840
1357949487091,1.04182
1357949547091,1.03903
1357949607091,1.04574
1357949667091,1.04587
1357949727091,1.03839
1357949787091,1.04547
1357949847091,1.04996
1357949907091,1.04040
1357949967091,1.04271
1357950027091,1.05037
1357950087091,1.04123
1357950147091,1.04465
1357950207091,1.04464
1357950267091,1.04547
1357950327091,1.04013
1357950387091,1.03262
1357950447091,1.04483
1357950507091,1.04410
1357950567091,1.04476
1357950627091,1.03690
1357950687091,1.03576
1357950747091,1.03696
1357950807091,1.02717
1357950867091,1.03641
1357950927091,1.03714
1357950987091,1.04416
1357951047091,1.03258
1357951107091,1.04028
1357951167091,1.03778
1357951227091,1.03550
1357951287091,1.03687
1357951347091,1.04474
1357951407091,1.03121
1357951467091,1.03435
1357951527091,1.03128
1357951587091,1.03048
1357951647091,1.03390
1357951707091,1.02987
1357951767091,1.02782
1357951827091,1.02962
1357951887091,1.02098
1357951947091,1.02239
1357952007091,1.02301
1357952067091,1.02177
1357952127091,1.02646
1357952187091,1.02805
1357952247091,1.02238
1357952307091,1.02870
1357952367091,1.01521
1357952427102,1.01986
1357952487102,1.02568
1357952547102,1.01553
1357952607102,1.01900
1357952667102,1.02928
1357952727102,1.02086
1357952787102,1.02243
1357952847102,1.02479
1357952907102,1.02650
1357952967102,1.02568
1357953027102,1.02081
1357953087102,1.02055
1357953147102,1.02612
1357953207102,1.01699
1357953267102,1.02449
1357953327102,1.03188
1357953387102,1.02623
1357953447102,1.02575
1357953507102,1.03249
1357953567102,1.02588
1357953627102,1.03270
1357953687102,1.05030
1357953747102,1.04434
1357953807102,1.04861
1357953867102,1.04821
1357953927102,1.05014
1357953987102,1.04819
1357954047102,1.05093
1357954107102,1.04901
1357954167102,1.05116
1357954227102,1.05262
1357954287102,1.05135
1357954347102,1.04144
1357954407102,1.04924
1357954467102,1.04509
1357954527102,1.04648
1357954587102,1.03663
1357954647102,1.04093
1357954707102,1.04779
1357954767102,1.03932
1357954827102,1.03372
1357954887102,1.03534
1357954947102,1.03731
1357955007102,1.03796
1357955067102,1.02238
1357955127102,1.03279
1357955187102,1.03490
1357955247102,1.02081
1357955307102,1.01687
1357955367102,1.01609
1357955427102,1.02466
1357955487102,1.01919
1357955547102,1.01852
1357955607102,1.01311
1357955667102,1.01727
1357955727102,1.01332
1357955787102,1.02039
1357955847102,1.02172
1357955907102,1.01467
1357955967102,1.01333
1357956027112,1.01492
1357956087112,1.02049
1357956147112,1.02392
1357956207112,1.01691
1357956267112,1.01862
1357956327112,1.01859
1357956387112,1.01771
1357956447112,1.02171
1357956507112,1.01599
1357956567112,1.00919
1357956627112,1.00709
1357956687112,1.02182
1357956747112,1.02237
1357956807112,1.03516
1357956867112,1.04083
1357956927112,1.05150
1357956987112,1.06852
1357957047112,1.09738
1357957107112,1.11709
1357957167112,1.13350
1357957227112,1.13137
1357957287112,1.12428
1357957347112,1.12723
1357957407112,1.14070
1357957467112,1.14759
1357957527112,1.15104
1357957587112,1.16130
1357957647112,1.15125
1357957707112,1.14858
1357957767112,1.15404
1357957827112,1.15323
1357957887112,1.16021
1357957947112,1.14905
1357958007112,1.14748
1357958067112,1.14198
1357958127112,1.14660
1357958187112,1.14241
1357958247112,1.14417
1357958307112,1.14523
1357958367112,1.15310
1357958427112,1.15075
1357958487112,1.13760
1357958547112,1.14012
1357958607112,1.12290
1357958667112,1.13029
1357958727112,1.12152
1357958787112,1.12268
1357958847112,1.12069
1357958907112,1.11990
1357958967112,1.12469
1357959027112,1.11684
1357959087112,1.11194
1357959147112,1.10697
1357959207112,1.10648
1357959267112,1.10642
1357959327112,1.09832
1357959387112,1.09736
1357959447112,1.11222
1357959507112,1.09367
1357959567112,1.10232
1357959627123,1.09506
1357959687123,1.08817
1357959747123,1.08455
1357959807123,1.08320
1357959867123,1.09313
1357959927123,1.08657
1357959987123,1.08498
1357960047123,1.08387
1357960107123,1.08168
1357960167123,1.07915
1357960227123,1.07762
1357960287123,1.07909
1357960347123,1.07119
1357960407123,1.06143
1357960467123,1.06709
1357960527123,1.06656
1357960587123,1.07598
1357960647123,1.06732
1357960707123,1.07516
1357960767123,1.06337
1357960827123,1.06915
1357960887123,1.06725
1357960947123,1.06636
1357961007123,1.05963
1357961067123,1.07102
1357961127123,1.07009
1357961187123,1.06633
1357961247123,1.06828
1357961307123,1.06708
1357961367123,1.07813
1357961427123,1.07452
1357961487123,1.09089
1357961547123,1.08234
1357961607123,1.08581
1357961667123,1.09217
1357961727123,1.09361
1357961787123,1.09498
1357961847123,1.10190
1357961907123,1.11038
1357961967123,1.10102
1357962027123,1.11957
1357962087123,1.12101
1357962147123,1.09826
1357962207123,1.11053
1357962267123,1.11737
1357962327123,1.10514
1357962387123,1.10508
1357962447123,1.09691
1357962507123,1.09411
1357962567123,1.09844
1357962627123,1.08824
1357962687123,1.09007
1357962747123,1.08650
1357962807123,1.08139
1357962867123,1.07809
1357962927123,1.07550
1357962987123,1.08496
1357963047123,1.07082
1357963107123,1.06554
1357963167123,1.05663
1357963227134,1.06132
1357963287134,1.05892
1357963347134,1.06150
1357963407134,1.06446
1357963467134,1.05333
1357963527134,1.04899
1357963587134,1.05267
1357963647134,1.05165
1357963707134,1.04682
1357963767134,1.04573
1357963827134,1.03655
1357963887134,1.03841
1357963947134,1.04049
1357964007134,1.03816
1357964067134,1.04815
1357964127134,1.03549
1357964187134,1.02485
1357964247134,1.03333
1357964307134,1.03141
1357964367134,1.02605
1357964427134,1.03605
1357964487134,1.02879
1357964547134,1.04327
1357964607134,1.04697
1357964667134,1.04809
1357964727134,1.05962
1357964787134,1.06590
1357964847134,1.06814
1357964907134,1.07478
1357964967134,1.06187
1357965027134,1.06560
1357965087134,1.06640
1357965147134,1.06105
1357965207134,1.05475
1357965267134,1.05647
1357965327134,1.04595
1357965387134,1.05071
1357965447134,1.05012
1357965507134,1.04816
1357965567134,1.05279
1357965627134,1.04598
1357965687134,1.05072
1357965747134,1.03832
1357965807134,1.04188
1357965867134,1.03809
1357965927134,1.03679
1357965987134,1.03349
1357966047134,1.03434
1357966107134,1.04049
1357966167134,1.04235
1357966227134,1.03654
1357966287134,1.03848
1357966347134,1.03571
1357966407134,1.04177
1357966467134,1.03843
1357966527134,1.04112
1357966587134,1.03707
1357966647134,1.04043
1357966707134,1.04786
1357966767134,1.05400
1357966827145,1.04846
1357966887145,1.04807
1357966947145,1.06570
1357967007145,1.05836
1357967067145,1.06191
1357967127145,1.06553
1357967187145,1.06845
1357967247145,1.06456
1357967307145,1.07661
1357967367145,1.08636
1357967427145,1.08659
1357967487145,1.08111
1357967547145,1.07740
1357967607145,1.08482
1357967667145,1.06392
1357967727145,1.07529
1357967787145,1.06934
1357967847145,1.06631
1357967907145,1.06423
1357967967145,1.06355
1357968027145,1.07347
1357968087145,1.06599
1357968147145,1.06003
1357968207145,1.06338
1357968267145,1.06067
1357968327145,1.05709
1357968387145,1.05837
1357968447145,1.05658
1357968507145,1.05278
1357968567145,1.05941
1357968627145,1.05367
1357968687145,1.05061
1357968747145,1.04443
1357968807145,1.04054
1357968867145,1.04340
1357968927145,1.03783
1357968987145,1.04141
1357969047145,1.03709
1357969107145,1.04245
1357969167145,1.04186
1357969227145,1.03972
1357969287145,1.04885
1357969347145,1.04183
1357969407145,1.04627
1357969467145,1.05505
1357969527145,1.05622
1357969587145,1.05590
1357969647145,1.06494
1357969707145,1.06295
1357969767145,1.06131
1357969827145,1.06639
1357969887145,1.07245
1357969947145,1.06920
1357970007145,1.06932
1357970067145,1.08214
1357970127145,1.07542
1357970187145,1.08737
1357970247145,1.08942
1357970307145,1.08963
1357970367145,1.08363
1357970427156,1.08402
1357970487156,1.07201
1357970547156,1.07477
1357970607156,1.06322
1357970667156,1.06142
1357970727156,1.05916
1357970787156,1.05414
1357970847156,1.04298
1357970907156,1.04855
1357970967156,1.04281
1357971027156,1.04210
1357971087156,1.04387
1357971147156,1.04187
1357971207156,1.03091
1357971267156,1.03320
1357971327156,1.03692
1357971387156,1.02837
1357971447156,1.02876
1357971507156,1.01830
1357971567156,1.01936
1357971627156,1.02871
1357971687156,1.01455
1357971747156,1.02204
1357971807156,1.01836
1357971867156,1.00945
1357971927156,1.01366
1357971987156,1.01175
1357972047156,1.01352
1357972107156,1.00495
1357972167156,1.01330
1357972227156,1.00606
1357972287156,1.00426
1357972347156,1.00507
1357972407156,1.00188
1357972467156,0.998233
1357972527156,0.999125
1357972587156,0.995234
1357972647156,0.999716
1357972707156,1.00115
1357972767156,0.995809
1357972827156,1.00239
1357972887156,0.993706
1357972947156,0.997567
1357973007156,1.00682
1357973067156,1.00197
1357973127156,0.998434
1357973187156,0.995403
1357973247156,0.993100
1357973307156,0.989198
1357973367156,0.997721
1357973427156,0.997835
1357973487156,0.996792
1357973547156,1.00115
1357973607156,0.992283
1357973667156,0.994607
1357973727156,1.00152
1357973787156,0.989370
1357973847156,0.994683
1357973907156,0.989186
1357973967156,0.988271
1357974027167,0.999572
1357974087167,0.991674
1357974147167,0.996309
1357974207167,0.995324
1357974267167,0.995644
1357974327167,0.991908
1357974387167,0.991059
1357974447167,0.992791
1357974507167,0.988829
1357974567167,0.989615
1357974627167,0.989880
1357974687167,0.992885
1357974747167,0.982373
1357974807167,0.994928
1357974867167,1.00156
1357974927167,0.981621
1357974987167,0.996122
1357975047167,0.998897
1357975107167,0.989231
1357975167167,0.986531
1357975227167,0.984001
1357975287167,0.985442
1357975347167,0.989214
1357975407167,0.991684
1357975467167,0.993200
1357975527167,0.988387
1357975587167,0.999639
1357975647167,0.985304
1357975707167,0.991515
1357975767167,0.994256
1357975827167,0.988915
1357975887167,0.993681
1357975947167,0.986281
1357976007167,0.984428
1357976067167,0.990796
1357976127167,0.985683
1357976187167,0.986613
1357976247167,0.991448
1357976307167,0.984325
1357976367167,0.988165
1357976427167,0.986777
1357976487167,0.986837
1357976547167,0.991419
1357976607167,0.987334
1357976667167,0.985989
1357976727167,0.985754
1357976787167,0.992531
1357976847167,0.993463
1357976907167,0.989047
1357976967167,0.989749
1357977027167,0.992208
1357977087167,0.992200
1357977147167,0.995418
1357977207167,0.991398
1357977267167,0.989809
1357977327167,0.990393
1357977387167,0.984381
1357977447167,0.986717
1357977507167,0.984996
1357977567167,0.990299
1357977627179,0.990556
1357977687179,0.989661
1357977747179,0.983757
1357977807179,0.984450
1357977867179,0.987697
1357977927179,0.985792
1357977987179,0.986504
1357978047179,0.991785
1357978107179,0.982668
1357978167179,0.978631
1357978227179,0.987020
1357978287179,0.989465
1357978347179,0.989515
1357978407179,0.990287
1357978467179,0.991153
1357978527179,0.988577
1357978587179,0.989257
1357978647179,0.982040
1357978707179,0.985673
1357978767179,0.983651
1357978827179,0.979213
1357978887179,0.985593
1357978947179,0.982469
1357979007179,0.987651
1357979067179,0.986552
1357979127179,0.991688
1357979187179,0.988834
1357979247179,0.977344
1357979307179,0.980887
1357979367179,0.978327
1357979427179,0.975933
1357979487179,0.984281
1357979547179,0.980081
1357979607179,0.985371
1357979667179,0.986556
1357979727179,0.982410
1357979787179,0.988766
1357979847179,0.975015
1357979907179,0.982961
1357979967179,0.985681
1357980027179,0.980818
1357980087179,0.979772
1357980147179,0.980222
1357980207179,0.982206
1357980267179,0.983839
1357980327179,0.991022
1357980387179,0.989618
1357980447179,0.996372
1357980507179,0.994237
1357980567179,0.978340
1357980627179,0.989260
1357980687179,0.988726
1357980747179,0.985821
1357980807179,0.987359
1357980867179,0.988395
1357980927179,0.988835
1357980987179,0.983949
1357981047179,0.993577
1357981107179,0.985826
1357981167179,0.993767
1357981227190,0.986987
1357981287190,1.00507
1357981347190,0.994278
1357981407190,1.00438
1357981467190,0.999801
1357981527190,0.997225
1357981587190,0.995820
1357981647190,0.995581
1357981707190,0.996304
1357981767190,1.00340
1357981827190,1.00119
1357981887190,0.997704
1357981947190,1.00177
1357982007190,1.00004
1357982067190,0.997239
1357982127190,1.00146
1357982187190,1.00571
1357982247190,1.00344
1357982307190,1.00183
1357982367190,1.00558
1357982427190,0.999947
1357982487190,1.01408
1357982547190,1.00245
1357982607190,1.00798
1357982667190,1.00559
1357982727190,1.00312
1357982787190,1.01500
1357982847190,1.01306
1357982907190,1.00748
1357982967190,1.02549
1357983027190,1.03047
1357983087190,1.02098
1357983147190,1.02783
1357983207190,1.02740
1357983267190,1.02906
1357983327190,1.03423
1357983387190,1.04039
1357983447190,1.03893
1357983507190,1.04206
1357983567190,1.04295
1357983627190,1.04654
1357983687190,1.04219
1357983747190,1.04385
1357983807190,1.03289
1357983867190,1.03688
1357983927190,1.03356
1357983987190,1.03474
1357984047190,1.03769
1357984107190,1.02583
1357984167190,1.02765
1357984227190,1.02858
1357984287190,1.02393
1357984347190,1.02526
1357984407190,1.01587
1357984467190,1.02206
1357984527190,1.02331
1357984587190,1.02605
1357984647190,1.01669
1357984707190,1.01649
1357984767190,1.01312
1357984827202,1.00893
1357984887202,1.01686
1357984947202,1.01627
1357985007202,1.00459
1357985067202,1.01607
1357985127202,1.00871
1357985187202,1.01039
1357985247202,1.00913
1357985307202,1.00293
1357985367202,1.00602
1357985427202,1.00923
1357985487202,1.00668
1357985547202,1.00290
1357985607202,1.00954
1357985667202,1.00569
1357985727202,1.00289
1357985787202,0.996490
1357985847202,1.01095
1357985907202,0.993971
1357985967202,1.00095
1357986027202,0.996800
1357986087202,1.00357
1357986147202,1.00130
1357986207202,1.00096
1357986267202,1.00441
1357986327202,0.998531
1357986387202,1.00438
1357986447202,1.00324
1357986507202,1.00806
1357986567202,1.00832
1357986627202,1.00406
1357986687202,1.00916
1357986747202,1.01153
1357986807202,1.00772
1357986867202,1.00463
1357986927202,1.01096
1357986987202,1.00939
1357987047202,1.00336
1357987107202,1.00472
1357987167202,1.00521
1357987227202,1.00397
1357987287202,0.998162
1357987347202,1.00483
1357987407202,1.00010
1357987467202,0.995234
1357987527202,1.00101
1357987587202,0.998228
1357987647202,0.992782
1357987707202,1.00601
1357987767202,0.997910
1357987827202,0.996870
1357987887202,1.00225
1357987947202,1.00705
1357988007202,1.00239
1357988067202,1.00153
1357988127202,1.00686
1357988187202,1.00159
1357988247202,0.995558
1357988307202,1.00547
1357988367202,0.996122
1357988427214,1.00484
1357988487214,1.00763
1357988547214,1.00116
1357988607214,1.00472
1357988667214,1.00658
1357988727214,1.00989
1357988787214,1.01218
1357988847214,1.00304
1357988907214,1.01570
1357988967214,1.01179
1357989027214,1.02573
1357989087214,1.00858
1357989627214,1.01178
1357989687214,1.00805
1357989747214,1.00633
1357989807214,1.01196
1357989867214,1.02174
1357989927214,1.01522
1357989987214,1.01136
1357990047214,1.01017
1357990107214,1.00816
1357990167214,1.01993
1357990227214,1.00603
1357990287214,1.00912
1357990347214,1.01576
1357990407214,1.01904
1357990467214,1.01338
1357990527214,1.00605
1357990587214,1.02024
1357990647214,1.01529
1357990707214,1.01245
1357990767214,1.01321
1357990827214,1.01183
1357990887214,1.01317
1357990947214,1.01563
1357991007214,1.01438
1357991067214,1.01162
1357991127214,1.02548
1357991187214,1.01250
1357991247214,1.01717
1357991307214,1.01501
1357991367214,1.01633
1357991427214,1.01220
1357991487214,1.01454
1357991547214,1.00613
1357991607214,1.01582
1357991667214,1.01911
1357991727214,1.01409
1357991787214,1.02090
1357991847214,1.01137
1357991907214,1.01096
1357991967214,1.02009
1357992027226,1.01161
1357992087226,1.01921
1357992147226,1.01804
1357992207226,1.01520
1357992267226,1.01515
1357992327226,1.00705
1357992387226,1.01698
1357992447226,1.01513
1357992507226,1.02131
1357992567226,1.01673
1357992627226,1.01960
1357992687226,1.01928
1357992747226,1.01621
1357992807226,1.01915
1357992867226,1.02033
1357992927226,1.02744
1357992987226,1.02053
1357993047226,1.03128
1357993107226,1.03529
1357993167226,1.03893
1357993227226,1.03659
1357993287226,1.03128
1357993347226,1.03735
1357993407226,1.04715
1357993467226,1.04225
1357993527226,1.04025
1357993587226,1.04754
1357993647226,1.04392
1357993707226,1.04658
1357993767226,1.03999
1357993827226,1.04348
1357993887226,1.04202
1357993947226,1.03811
1357994007226,1.04335
1357994067226,1.02612
1357994127226,1.02674
1357994187226,1.02358
1357994247226,1.02932
1357994307226,1.02709
1357994367226,1.02385
1357994427226,1.02927
1357994487226,1.02128
1357994547226,1.02068
1357994607226,1.02643
1357994667226,1.03488
1357994727226,1.02975
1357994787226,1.02751
1357994847226,1.02131
1357994907226,1.02110
1357994967226,1.01747
1357995027226,1.01536
1357995087226,1.01020
1357995147226,1.00725
1357995207226,1.00962
1357995267226,1.01364
1357995327226,1.00494
1357995387226,1.00452
1357995447226,1.00350
1357995507226,1.00048
1357995567226,0.997832
1357995627238,1.00042
1357995687238,0.987821
1357995747238,0.997286
1357995807238,0.994999
1357995867238,0.993552
1357995927238,0.993026
1357995987238,0.991816
1357996047238,0.993892
1357996107238,0.995596
1357996167238,0.996691
1357996227238,0.990331
1357996287238,0.997423
1357996347238,0.991633
1357996407238,0.990263
1357996467238,0.983234
1357996527238,0.995318
1357996587238,0.990084
1357996647238,0.986422
1357996707238,0.994358
1357996767238,0.980858
1357996827238,0.982093
1357996887238,0.988143
1357996947238,0.988551
1357997007238,0.981851
1357997067238,0.982240
1357997127238,0.979955
1357997187238,0.982519
1357997247238,0.982271
1357997307238,0.981153
1357997367238,0.983777
1357997427238,0.990071
1357997487238,0.987648
1357997547238,0.976986
1357997607238,0.989472
1357997667238,0.989052
1357997727238,0.985705
1357997787238,0.983866
1357997847238,0.985906
1357997907238,0.982722
1357997967238,0.978482
1357998027238,0.986859
1357998087238,0.988829
1357998147238,0.987823
1357998207238,0.992071
1357998267238,0.992101
1357998327238,0.991427
1357998387238,0.990279
1357998447238,0.980800
1357998507238,0.986609
1357998567238,0.984599
1357998627238,0.985444
1357998687238,0.982437
1357998747238,0.985540
1357998807238,0.987245
1357998867238,0.987957
1357998927238,0.989683
1357998987238,0.989922
1357999047238,0.984070
1357999107238,0.983564
1357999167238,0.985522
1357999227249,0.991552
1357999287249,0.984232
1357999347249,0.990405
1357999407249,0.984153
1357999467249,0.980469
1357999527249,0.992953
1357999587249,0.991069
1357999647249,0.992703
1357999707249,0.984662
1357999767249,0.988706
1357999827249,0.989597
1357999887249,0.986631
1357999947249,0.988969
1358000007249,0.979160
1358000067249,0.992357
1358000127249,0.984272
1358000187249,0.983410
1358000247249,0.984186
1358000307249,0.985194
1358000367249,0.980867
1358000427249,0.974003
1358000487249,0.980821
1358000547249,0.977078
1358000607249,0.986348
1358000667249,0.980751
1358000727249,0.985681
1358000787249,0.982060
1358000847249,0.979334
1358000907249,0.986115
1358000967249,0.981070
1358001027249,0.970557
1358001087249,0.979653
1358001147249,0.979921
1358001207249,0.988666
1358001267249,0.985092
1358001327249,0.972254
1358001387249,0.976171
1358001447249,0.980068
1358001507249,0.980935
1358001567249,0.979574
1358001627249,0.979602
1358001687249,0.978519
1358001747249,0.975404
1358001807249,0.985079
1358001867249,0.978030
1358001927249,0.979509
1358001987249,0.972193
1358002047249,0.981083
1358002107249,0.976621
1358002167249,0.974384
1358002227249,0.972311
1358002287249,0.972530
1358002347249,0.980109
1358002407249,0.968389
1358002467249,0.978034
1358002527249,0.974472
1358002587249,0.969678
1358002647249,0.972494
1358002707249,0.977007
1358002767249,0.975248
1358002827261,0.975607
1358002887261,0.976702
1358002947261,0.976528
1358003007261,0.977221
1358003067261,0.984541
1358003127261,0.980883
1358003187261,0.977546
1358003247261,0.976002
1358003307261,0.979240
1358003367261,0.970918
1358003427261,0.986257
1358003487261,0.983052
1358003547261,0.990406
1358003607261,0.984845
1358003667261,0.985796
1358003727261,0.985363
1358003787261,0.983785
1358003847261,0.987309
1358003907261,0.985514
1358003967261,0.989763
1358004027261,0.990322
1358004087261,0.992649
1358004147261,0.992041
1358004207261,0.992140
1358004267261,0.985589
1358004327261,0.992754
1358004387261,0.985872
1358004447261,0.982108
1358004507261,0.988796
1358004567261,0.989793
1358004627261,0.990149
1358004687261,0.997870
1358004747261,1.00568
1358004807261,1.00318
1358004867261,1.00504
1358004927261,1.01477
1358004987261,1.01452
1358005047261,1.00546
1358005107261,0.998958
1358005167261,1.00043
1358005227261,1.00299
1358005287261,0.985905
1358005347261,0.997650
1358005407261,0.993723
1358005467261,1.00078
1358005527261,1.00194
1358005587261,0.994850
1358005647261,0.994835
1358005707261,1.00469
1358005767261,1.00418
1358005827261,1.01389
1358005887261,1.02074
1358005947261,1.01825
1358006007261,1.03278
1358006067261,1.03483
1358006127261,1.03619
1358006187261,1.02869
1358006247261,1.02764
1358006307261,1.02137
1358006367261,1.04269
1358006427272,1.02694
1358006487272,1.03322
1358006547272,1.03144
1358006607272,1.02802
1358006667272,1.02827
1358006727272,1.02962
1358006787272,1.03092
1358006847272,1.03451
1358006907272,1.03667
1358006967272,1.03572
1358007027272,1.03275
1358007087272,1.02480
1358007147272,1.02763
1358007207272,1.03704
1358007267272,1.03964
1358007327272,1.02928
1358007387272,1.02801
1358007447272,1.02829
1358007507272,1.02196
1358007567272,1.02323
1358007627272,1.02848
1358007687272,1.02997
1358007747272,1.02317
1358007807272,1.02155
1358007867272,1.02725
1358007927272,1.01537
1358007987272,1.02511
1358008047272,1.02149
1358008107272,1.01752
1358008167272,1.02155
1358008227272,1.01206
1358008287272,1.01720
1358008347272,1.00802
1358008407272,1.00664
1358008467272,1.01254
1358008527272,1.01669
1358008587272,1.01508
1358008647272,1.01579
1358008707272,1.01564
1358008767272,1.01405
1358008827272,1.01011
1358008887272,1.00571
1358008947272,1.01072
1358009007272,1.00316
1358009067272,1.00400
1358009127272,1.00404
1358009187272,0.996463
1358009247272,1.00631
1358009307272,1.00765
1358009367272,1.00195
1358009427272,1.00540
1358009487272,1.00541
1358009547272,1.00242
1358009607272,1.01535
1358009667272,1.00045
1358009727272,1.01412
1358009787272,1.00585
1358009847272,1.00851
1358009907272,1.00143
1358009967272,1.01607
1358010027284,1.02010
1358010087284,1.01475
1358010147284,1.01462
1358010207284,1.02312
1358010267284,1.02516
1358010327284,1.02533
1358010387284,1.02384
1358010447284,1.03475
1358010507284,1.03661
1358010567284,1.04433
1358010627284,1.04625
1358010687284,1.04825
1358010747284,1.04352
1358010807284,1.05179
1358010867284,1.05238
1358010927284,1.05720
1358010987284,1.06999
1358011047284,1.06692
1358011107284,1.06955
1358011167284,1.06783
1358011227284,1.07676
1358011287284,1.07069
1358011347284,1.07344
1358011407284,1.07256
1358011467284,1.07416
1358011527284,1.06995
1358011587284,1.06827
1358011647284,1.06968
1358011707284,1.06388
1358011767284,1.06612
1358011827284,1.06562
1358011887284,1.06232
1358011947284,1.06029
1358012007284,1.06368
1358012067284,1.06338
1358012127284,1.05518
1358012187284,1.05425
1358012247284,1.05505
1358012307284,1.05018
1358012367284,1.05340
1358012427284,1.05656
1358012487284,1.05454
1358012547284,1.05388
1358012607284,1.04985
1358012667284,1.05698
1358012727284,1.04910
1358012787284,1.05251
1358012847284,1.04806
1358012907284,1.05499
1358012967284,1.05540
1358013027284,1.04679
1358013087284,1.05197
1358013147284,1.04317
1358013207284,1.04592
1358013267284,1.04630
1358013327284,1.05026
1358013387284,1.04088
1358013447284,1.03877
1358013507284,1.04237
1358013567284,1.04156
1358013627295,1.03552
1358013687295,1.02008
1358013747295,1.01775
1358013807295,1.02543